DW3167 Weather Reports


time (UTC)temp
C
wind
direction
speed
KPH
gust
KPH
rain 1hr
cm
rain 24hr
cm
rain mn
cm
humidity
%
barometer
mb
20260503215041 16 201 1.6 4.8 0.00 0.00 0.00 24 1013.7
20260503214558 16 338 0.0 6.4 0.00 0.00 0.00 27 1013.7
20260503214500 16 250 1.6 6.4 0.00 0.00 0.00 24 1013.7
20260503214038 17 230 3.2 6.4 0.00 0.00 0.00 24 1013.8
20260503213554 17 237 1.6 6.4 0.00 0.00 0.00 26 1013.8
20260503213035 16 5 0.0 8.0 0.00 0.00 0.00 26 1013.9
20260503212550 16 293 3.2 8.0 0.00 0.00 0.00 25 1013.9
20260503212013 17 351 3.2 6.4 0.00 0.00 0.00 27 1013.9
20260503211546 16 273 1.6 6.4 0.00 0.00 0.00 29 1013.9
20260503211007 16 253 3.2 6.4 0.00 0.00 0.00 24 1014.0
20260503210533 17 302 1.6 6.4 0.00 0.00 0.00 26 1014.0
20260503210013 17 9 1.6 4.8 0.00 0.00 0.00 27 1014.1
20260503205544 17 269 0.0 4.8 0.00 0.00 0.00 26 1014.1
20260503205101 16 278 0.0 6.4 0.00 0.00 0.00 27 1014.1
20260503205004 16 277 0.0 6.4 0.00 0.00 0.00 26 1014.1
20260503204543 16 238 0.0 6.4 0.00 0.00 0.00 25 1014.1
20260503204058 16 315 3.2 6.4 0.00 0.00 0.00 26 1014.1
20260503203520 16 307 0.0 6.4 0.00 0.00 0.00 24 1014.2
20260503203056 16 246 1.6 6.4 0.00 0.00 0.00 26 1014.2
20260503202536 16 232 3.2 6.4 0.00 0.00 0.00 28 1014.4
20260503202014 16 290 1.6 12.9 0.00 0.00 0.00 32 1014.4
20260503201534 16 277 1.6 12.9 0.00 0.00 0.00 28 1014.4
20260503201010 16 15 1.6 8.0 0.00 0.00 0.00 27 1014.5
20260503200528 16 337 4.8 8.0 0.00 0.00 0.00 25 1014.6
20260503200105 16 279 4.8 8.0 0.00 0.00 0.00 28 1014.7
20260503195539 16 269 1.6 9.7 0.00 0.00 0.00 27 1014.6
20260503195019 15 22 1.6 12.9 0.00 0.00 0.00 28 1014.8
20260503194550 15 5 4.8 12.9 0.00 0.00 0.00 27 1014.9
20260503194025 15 288 3.2 14.5 0.00 0.00 0.00 29 1014.9
20260503193559 15 327 4.8 14.5 0.00 0.00 0.00 30 1014.9
20260503193043 16 299 3.2 8.0 0.00 0.00 0.00 28 1015.0
20260503192514 16 339 1.6 14.5 0.00 0.00 0.00 29 1015.0
20260503192054 15 304 0.0 14.5 0.00 0.00 0.00 30 1015.0
20260503191534 16 300 3.2 11.3 0.00 0.00 0.00 30 1015.2
20260503191012 16 355 1.6 32.2 0.00 0.00 0.00 33 1015.2
20260503190545 15 360 1.6 11.3 0.00 0.00 0.00 32 1015.3
20260503190028 15 279 1.6 6.4 0.00 0.00 0.00 30 1015.5
20260503185556 15 301 1.6 8.0 0.00 0.00 0.00 33 1015.6
20260503185504 15 256 1.6 8.0 0.00 0.00 0.00 35 1015.6
20260503185039 15 300 3.2 16.1 0.00 0.00 0.00 30 1015.7
20260503184521 15 355 3.2 22.5 0.00 0.00 0.00 30 1015.7
20260503184050 15 315 9.7 22.5 0.00 0.00 0.00 36 1015.7
20260503183534 15 320 1.6 9.7 0.00 0.00 0.00 32 1015.8
20260503183107 14 317 1.6 9.7 0.00 0.00 0.00 31 1016.0
20260503182524 14 29 3.2 9.7 0.00 0.00 0.00 32 1016.1
20260503182056 14 34 0.0 6.4 0.00 0.00 0.00 31 1016.0
20260503181538 14 288 1.6 12.9 0.00 0.00 0.00 32 1016.0
20260503181010 13 9 1.6 12.9 0.00 0.00 0.00 35 1016.1
20260503180546 13 317 3.2 9.7 0.00 0.00 0.00 38 1016.1
20260503180021 13 292 1.6 9.7 0.00 0.00 0.00 33 1016.1
20260503175557 13 68 1.6 12.9 0.00 0.00 0.00 33 1016.1
20260503175043 13 25 3.2 12.9 0.00 0.00 0.00 31 1016.2
20260503174529 13 21 3.2 8.0 0.00 0.00 0.00 34 1016.1
20260503174059 13 5 3.2 12.9 0.00 0.00 0.00 36 1016.2
20260503173538 13 17 4.8 12.9 0.00 0.00 0.00 33 1016.2
20260503173023 13 294 4.8 6.4 0.00 0.00 0.00 33 1016.3
20260503172553 13 347 1.6 9.7 0.00 0.00 0.00 36 1016.3
20260503172034 13 347 3.2 11.3 0.00 0.00 0.00 38 1016.5
20260503171519 13 328 3.2 11.3 0.00 0.00 0.00 37 1016.5
20260503171046 12 355 1.6 8.0 0.00 0.00 0.00 35 1016.6
20260503170520 12 49 3.2 12.9 0.00 0.00 0.00 36 1016.7
20260503151003 10 259 3.2 9.7 0.00 0.00 0.00 42 1017.8
20260503150537 10 340 3.2 9.7 0.00 0.00 0.00 42 1017.9
20260503131012 6 180 4.8 14.5 0.00 0.00 0.00 57 1017.7
20260503130553 6 248 1.6 8.0 0.00 0.00 0.00 54 1017.7
20260503110536 2 250 0.0 0.0 0.00 0.00 0.00 75 1016.9
20260503090110 4 254 0.0 0.0 0.00 0.00 0.00 73 1015.4
20260503081521 4 254 0.0 0.0 0.00 0.00 0.00 71 1015.1
20260503081100 4 254 0.0 0.0 0.00 0.00 0.00 70 1015.0
20260503080540 4 254 0.0 0.0 0.00 0.00 0.00 71 1014.9
20260503080107 4 254 0.0 0.0 0.00 0.00 0.00 72 1015.0
20260503072546 5 240 0.0 0.0 0.00 0.00 0.00 72 1014.8
20260503072022 5 240 0.0 0.0 0.00 0.00 0.00 72 1014.6
20260503071547 5 240 0.0 0.0 0.00 0.00 0.00 71 1014.5
20260503071021 5 240 0.0 0.0 0.00 0.00 0.00 71 1014.5
20260503070557 5 240 0.0 0.0 0.00 0.00 0.00 71 1014.4
20260503060122 3 128 0.0 0.0 0.00 0.00 0.00 78 1014.3
20260503055027 3 151 0.0 0.0 0.00 0.00 0.00 76 1014.2
20260503054514 3 151 0.0 0.0 0.00 0.00 0.00 76 1014.2
20260503054049 3 151 0.0 0.0 0.00 0.00 0.00 77 1014.3
20260503053537 3 155 0.0 0.0 0.00 0.00 0.00 76 1014.2
20260503053017 3 157 0.0 0.0 0.00 0.00 0.00 74 1014.2
20260503052600 3 157 0.0 0.0 0.00 0.00 0.00 74 1014.2
20260503052502 3 157 0.0 0.0 0.00 0.00 0.00 73 1014.2
20260503052042 3 112 0.0 0.0 0.00 0.00 0.00 72 1014.2
20260503051527 4 148 0.0 3.2 0.00 0.00 0.00 72 1014.2
20260503051003 4 148 0.0 0.0 0.00 0.00 0.00 71 1014.2
20260503050543 4 184 0.0 1.6 0.00 0.00 0.00 70 1014.2
20260503050026 5 184 0.0 1.6 0.00 0.00 0.00 70 1014.1
20260503045557 5 189 0.0 0.0 0.00 0.00 0.00 70 1014.2
20260503045037 5 190 0.0 0.0 0.00 0.00 0.00 69 1014.2
20260503044559 5 190 0.0 3.2 0.00 0.00 0.00 67 1014.3
20260503044042 5 190 0.0 3.2 0.00 0.00 0.00 65 1014.4
20260503043523 6 184 0.0 1.6 0.00 0.00 0.00 65 1014.3
20260503043051 6 181 0.0 1.6 0.00 0.00 0.00 63 1014.3
20260503042531 6 93 0.0 1.6 0.00 0.00 0.00 64 1014.3
20260503042009 6 148 0.0 0.0 0.00 0.00 0.00 63 1014.3
20260503041549 6 182 0.0 0.0 0.00 0.00 0.00 62 1014.3
20260503041029 6 182 0.0 0.0 0.00 0.00 0.00 61 1014.3
20260503040559 6 182 0.0 0.0 0.00 0.00 0.00 61 1014.4
20260503040502 6 182 0.0 0.0 0.00 0.00 0.00 62 1014.3
20260503040027 6 182 0.0 0.0 0.00 0.00 0.00 62 1014.3
20260503035555 6 244 0.0 0.0 0.00 0.00 0.00 60 1014.1
20260503035035 6 258 0.0 3.2 0.00 0.00 0.00 60 1014.3
20260503034516 6 258 0.0 3.2 0.00 0.00 0.00 61 1014.3
20260503034052 6 259 0.0 3.2 0.00 0.00 0.00 60 1014.2
20260503033514 7 309 0.0 1.6 0.00 0.00 0.00 61 1014.0
20260503033056 7 309 0.0 3.2 0.00 0.00 0.00 61 1014.1
20260503032529 7 309 0.0 3.2 0.00 0.00 0.00 60 1014.0
20260503032059 7 265 0.0 3.2 0.00 0.00 0.00 58 1013.9
20260503032007 7 265 0.0 3.2 0.00 0.00 0.00 58 1013.9
20260503031541 7 253 0.0 3.2 0.00 0.00 0.00 58 1013.8
20260503031024 7 350 0.0 3.2 0.00 0.00 0.00 55 1013.7
20260503030557 7 275 0.0 0.0 0.00 0.00 0.00 56 1013.8
20260503030035 8 360 0.0 1.6 0.00 0.00 0.00 54 1013.9
20260503025511 8 355 0.0 6.4 0.00 0.00 0.00 53 1013.7
20260503025033 8 16 1.6 6.4 0.00 0.00 0.00 52 1013.9
20260503024508 8 336 0.0 0.0 0.00 0.00 0.00 50 1013.7
20260503024047 8 300 0.0 0.0 0.00 0.00 0.00 52 1013.6
20260503023524 8 267 0.0 0.0 0.00 0.00 0.00 51 1013.6
20260503023101 8 267 0.0 0.0 0.00 0.00 0.00 50 1013.6
20260503023001 8 267 0.0 0.0 0.00 0.00 0.00 51 1013.6
20260503022534 8 267 0.0 0.0 0.00 0.00 0.00 50 1013.7
20260503022027 8 267 0.0 0.0 0.00 0.00 0.00 51 1013.7
20260503021505 8 267 0.0 0.0 0.00 0.00 0.00 48 1013.5
20260503021045 9 292 0.0 3.2 0.00 0.00 0.00 50 1013.6
20260503020513 9 312 0.0 4.8 0.00 0.00 0.00 49 1013.5
20260503020047 9 319 0.0 6.4 0.00 0.00 0.00 46 1013.5
20260503015532 9 271 1.6 6.4 0.00 0.00 0.00 46 1013.5
20260503015059 9 280 0.0 0.0 0.00 0.00 0.00 48 1013.5
20260503015002 9 280 0.0 0.0 0.00 0.00 0.00 48 1013.5
20260503014543 9 280 0.0 0.0 0.00 0.00 0.00 47 1013.5
20260503014025 9 296 0.0 0.0 0.00 0.00 0.00 49 1013.4
20260503013507 9 296 0.0 1.6 0.00 0.00 0.00 49 1013.4
20260503013044 9 296 0.0 3.2 0.00 0.00 0.00 49 1013.4
20260503012523 9 296 0.0 3.2 0.00 0.00 0.00 46 1013.3
20260503012004 9 311 0.0 4.8 0.00 0.00 0.00 47 1013.3
20260503011521 9 295 0.0 4.8 0.00 0.00 0.00 48 1013.1
20260503011101 9 278 1.6 4.8 0.00 0.00 0.00 46 1013.1
20260503011007 9 278 1.6 4.8 0.00 0.00 0.00 45 1013.2
20260503010541 9 318 0.0 3.2 0.00 0.00 0.00 45 1013.2
20260503010027 9 261 0.0 1.6 0.00 0.00 0.00 50 1013.0
20260503005504 9 261 0.0 1.6 0.00 0.00 0.00 46 1012.9
20260503005038 9 260 0.0 1.6 0.00 0.00 0.00 46 1012.9
20260503004521 10 258 0.0 1.6 0.00 0.00 0.00 49 1012.8
20260503004057 10 276 0.0 3.2 0.00 0.00 0.00 46 1012.7
20260503003535 10 280 0.0 3.2 0.00 0.00 0.00 44 1012.5
20260503003017 10 296 0.0 4.8 0.00 0.00 0.00 45 1012.5
20260503002546 10 296 1.6 4.8 0.00 0.00 0.00 42 1012.4
20260503002028 10 281 1.6 4.8 0.00 0.00 0.00 45 1012.4
20260503001516 10 296 1.6 3.2 0.00 0.00 0.00 44 1012.2
20260503001050 10 296 0.0 3.2 0.00 0.00 0.00 44 1012.2
20260503000537 10 299 0.0 3.2 0.00 0.00 0.00 46 1012.2
20260503000026 10 252 0.0 3.2 0.00 0.00 0.00 44 1012.1
20260502235556 10 292 0.0 3.2 0.00 0.00 0.00 42 1012.0
20260502235500 10 287 0.0 3.2 0.00 0.00 0.00 44 1011.9
20260502235042 10 300 0.0 4.8 0.00 0.00 0.00 44 1011.9
20260502234533 10 305 1.6 4.8 0.00 0.00 0.00 43 1011.8
20260502234050 10 294 1.6 8.0 0.00 0.00 0.00 42 1011.8
20260502233517 10 286 1.6 9.7 0.00 0.00 0.00 42 1011.7
20260502233040 10 263 3.2 9.7 0.00 0.00 0.00 43 1011.6
20260502232522 11 302 1.6 8.0 0.00 0.00 0.00 43 1011.5
20260502232058 11 321 0.0 8.0 0.00 0.00 0.00 43 1011.5
20260502232008 11 355 0.0 8.0 0.00 0.00 0.00 45 1011.5
20260502231544 11 295 1.6 4.8 0.00 0.00 0.00 43 1011.4
20260502231029 11 313 1.6 6.4 0.00 0.00 0.00 44 1011.5
20260502230550 11 292 3.2 11.3 0.00 0.00 0.00 42 1011.4
20260502230017 11 300 1.6 11.3 0.00 0.00 0.00 45 1011.4
20260502225534 11 292 1.6 6.4 0.00 0.00 0.00 45 1011.4
20260502225012 11 335 1.6 9.7 0.00 0.00 0.00 42 1011.3
20260502224534 11 316 3.2 9.7 0.00 0.00 0.00 42 1011.3
20260502224052 11 293 1.6 6.4 0.00 0.00 0.00 46 1011.2
20260502223534 11 344 1.6 6.4 0.00 0.00 0.00 42 1011.2
20260502223051 11 290 3.2 6.4 0.00 0.00 0.00 42 1011.2
20260502222534 11 275 0.0 4.8 0.00 0.00 0.00 44 1011.2
20260502222052 11 300 1.6 6.4 0.00 0.00 0.00 43 1011.3
20260502221515 11 300 1.6 6.4 0.00 0.00 0.00 43 1011.3
20260502221050 11 306 1.6 6.4 0.00 0.00 0.00 46 1011.2
20260502220517 11 327 1.6 6.4 0.00 0.00 0.00 43 1011.2
20260502220051 11 333 1.6 6.4 0.00 0.00 0.00 41 1011.2
20260502215511 11 301 1.6 4.8 0.00 0.00 0.00 43 1011.1